Météo Nord-Pas-de-Calais   La météo au plus près de chez vous

Station météorologique

Observations météo à Fecamp (76259)

76259001 104 m Dernier relevé à 15:00
19.8°C
Vent 9.7 km/h

Journée consultée

Samedi 5 Septembre 2026

Synthèse de la journée

Périodes de référence en UTC

Température maximale

20.6°C

à 13:48

06h 06h

Température minimale

16.4°C

à 07:06

18h 18h

Rafale maximale

45 km/h

à 03:30

00h 00h

Précipitations

0 mm

Cumul quotidien

06h 06h

Graphiques de la journée

Heure locale Réduire

Données détaillées

Relevés météo

Pas de 6 minutes Afficher les relevés infra-horaires
Relevés météo détaillés à Fecamp pour le Samedi 5 Septembre 2026
Heure Température °C Vent moyen (raf.), km/h Précipitations mm
15:00 19.8 °C 12 km/h (21 km/h) 0 mm0 mm
14:54 20.1 °C 10 km/h (21 km/h) 0 mm0 mm
14:48 20.2 °C 10 km/h (21 km/h) 0 mm0 mm
14:42 20 °C 10 km/h (21 km/h) 0 mm0 mm
14:36 19.9 °C 10 km/h (20 km/h) 0 mm0 mm
14:30 20 °C 9 km/h (22 km/h) 0 mm0 mm
14:24 20.4 °C 10 km/h (17 km/h) 0 mm0 mm
14:18 20.4 °C 13 km/h (20 km/h) 0 mm0 mm
14:12 20.5 °C 13 km/h (20 km/h) 0 mm0 mm
14:06 20.5 °C 13 km/h (23 km/h) 0 mm0 mm
14:00 20.3 °C 10 km/h (23 km/h) 0 mm0 mm
13:54 20.5 °C 10 km/h (21 km/h) 0 mm0 mm
13:48 20.6 °C 10 km/h (22 km/h) 0 mm0 mm
13:42 20.2 °C 11 km/h (21 km/h) 0 mm0 mm
13:36 19.8 °C 11 km/h (21 km/h) 0 mm0 mm
13:30 19.5 °C 10 km/h (18 km/h) 0 mm0 mm
13:24 19.1 °C 13 km/h (21 km/h) 0 mm0 mm
13:18 20.2 °C 12 km/h (21 km/h) 0 mm0 mm
13:12 20 °C 10 km/h (18 km/h) 0 mm0 mm
13:06 19.5 °C 9 km/h (18 km/h) 0 mm0 mm
13:00 18.7 °C 8 km/h (18 km/h) 0 mm0 mm
12:54 19 °C 11 km/h (20 km/h) 0 mm0 mm
12:48 19.5 °C 12 km/h (20 km/h) 0 mm0 mm
12:42 19.3 °C 13 km/h (22 km/h) 0 mm0 mm
12:36 19.2 °C 13 km/h (22 km/h) 0 mm0 mm
12:30 19.3 °C 13 km/h (22 km/h) 0 mm0 mm
12:24 19.3 °C 11 km/h (21 km/h) 0 mm0 mm
12:18 19.1 °C 10 km/h (19 km/h) 0 mm0 mm
12:12 19.1 °C 13 km/h (21 km/h) 0 mm0 mm
12:06 18.9 °C 13 km/h (21 km/h) 0 mm0 mm
12:00 19.3 °C 12 km/h (23 km/h) 0 mm0 mm
11:54 19.1 °C 11 km/h (23 km/h) 0 mm0 mm
11:48 19 °C 13 km/h (22 km/h) 0 mm0 mm
11:42 18.7 °C 13 km/h (22 km/h) 0 mm0 mm
11:36 19.1 °C 9 km/h (20 km/h) 0 mm0 mm
11:30 19 °C 9 km/h (27 km/h) 0 mm0 mm
11:24 18.7 °C 14 km/h (27 km/h) 0 mm0 mm
11:18 18.8 °C 15 km/h (24 km/h) 0 mm0 mm
11:12 18.7 °C 11 km/h (24 km/h) 0 mm0 mm
11:06 18.7 °C 12 km/h (21 km/h) 0 mm0 mm
11:00 18.5 °C 13 km/h (21 km/h) 0 mm0 mm
10:54 18.5 °C 11 km/h (21 km/h) 0 mm0 mm
10:48 18.6 °C 11 km/h (21 km/h) 0 mm0 mm
10:42 18.3 °C 13 km/h (23 km/h) 0 mm0 mm
10:36 18.5 °C 12 km/h (19 km/h) 0 mm0 mm
10:30 18.3 °C 10 km/h (22 km/h) 0 mm0 mm
10:24 18.1 °C 13 km/h (25 km/h) 0 mm0 mm
10:18 17.9 °C 15 km/h (25 km/h) 0 mm0 mm
10:12 17.9 °C 15 km/h (25 km/h) 0 mm0 mm
10:06 17.8 °C 15 km/h (24 km/h) 0 mm0 mm
10:00 17.6 °C 16 km/h (26 km/h) 0 mm0 mm
09:54 17.7 °C 15 km/h (26 km/h) 0 mm0 mm
09:48 17.5 °C 13 km/h (26 km/h) 0 mm0 mm
09:42 17.7 °C 14 km/h (32 km/h) 0 mm0 mm
09:36 17.4 °C 18 km/h (32 km/h) 0 mm0 mm
09:30 17.2 °C 16 km/h (29 km/h) 0 mm0 mm
09:24 16.9 °C 16 km/h (31 km/h) 0 mm0 mm
09:18 17.2 °C 17 km/h (31 km/h) 0 mm0 mm
09:12 17.3 °C 18 km/h (29 km/h) 0 mm0 mm
09:06 17.3 °C 18 km/h (29 km/h) 0 mm0 mm
09:00 17.1 °C 17 km/h (26 km/h) 0 mm0 mm
08:54 17.1 °C 18 km/h (34 km/h) 0 mm0 mm
08:48 17 °C 18 km/h (34 km/h) 0 mm0 mm
08:42 17.1 °C 17 km/h (29 km/h) 0 mm0 mm
08:36 16.9 °C 20 km/h (35 km/h) 0 mm0 mm
08:30 16.7 °C 22 km/h (35 km/h) 0 mm0 mm
08:24 16.5 °C 21 km/h (34 km/h) 0 mm0 mm
08:18 16.5 °C 22 km/h (34 km/h) 0 mm0 mm
08:12 16.5 °C 21 km/h (32 km/h) 0 mm0 mm
08:06 16.7 °C 18 km/h (32 km/h) 0 mm0 mm
08:00 16.5 °C 18 km/h (31 km/h) 0 mm0 mm
07:54 16.5 °C 19 km/h (34 km/h) 0 mm0 mm
07:48 16.5 °C 21 km/h (37 km/h) 0 mm0 mm
07:42 16.5 °C 22 km/h (37 km/h) 0 mm0 mm
07:36 16.5 °C 23 km/h (36 km/h) 0 mm0 mm
07:30 16.4 °C 26 km/h (38 km/h) 0 mm0 mm
07:24 16.4 °C 25 km/h (43 km/h) 0 mm0 mm
07:18 16.5 °C 27 km/h (44 km/h) 0 mm0 mm
07:12 16.4 °C 27 km/h (44 km/h) 0 mm0 mm
07:06 16.4 °C 26 km/h (41 km/h) 0 mm0 mm
07:00 16.5 °C 24 km/h (42 km/h) 0 mm0 mm
06:54 16.5 °C 25 km/h (43 km/h) 0 mm0 mm
06:48 16.6 °C 27 km/h (43 km/h) 0 mm0 mm
06:42 16.6 °C 28 km/h (44 km/h) 0 mm0 mm
06:36 16.5 °C 24 km/h (44 km/h) 0 mm0 mm
06:30 16.7 °C 22 km/h (39 km/h) 0 mm0 mm
06:24 16.7 °C 24 km/h (39 km/h) 0 mm0 mm
06:18 16.6 °C 27 km/h (37 km/h) 0 mm0 mm
06:12 16.6 °C 21 km/h (37 km/h) 0 mm0 mm
06:06 16.5 °C 18 km/h (34 km/h) 0 mm0 mm
06:00 16.6 °C 22 km/h (37 km/h) 0 mm0 mm
05:54 16.7 °C 21 km/h (37 km/h) 0 mm0 mm
05:48 16.7 °C 24 km/h (37 km/h) 0 mm0 mm
05:42 16.8 °C 24 km/h (37 km/h) 0 mm0 mm
05:36 16.7 °C 22 km/h (35 km/h) 0 mm0 mm
05:30 16.7 °C 20 km/h (35 km/h) 0 mm0 mm
05:24 16.7 °C 20 km/h (35 km/h) 0 mm0 mm
05:18 16.7 °C 21 km/h (35 km/h) 0 mm0 mm
05:12 16.8 °C 25 km/h (38 km/h) 0 mm0 mm
05:06 16.7 °C 27 km/h (42 km/h) 0 mm0 mm
05:00 16.7 °C 23 km/h (39 km/h) 0 mm0 mm
04:54 16.7 °C 22 km/h (37 km/h) 0 mm0 mm
04:48 16.7 °C 22 km/h (37 km/h) 0 mm0 mm
04:42 16.7 °C 25 km/h (44 km/h) 0 mm0 mm
04:36 16.7 °C 27 km/h (44 km/h) 0 mm0 mm
04:30 16.8 °C 25 km/h (43 km/h) 0 mm0 mm
04:24 16.8 °C 24 km/h (40 km/h) 0 mm0 mm
04:18 16.8 °C 23 km/h (42 km/h) 0 mm0 mm
04:12 16.9 °C 28 km/h (42 km/h) 0 mm0 mm
04:06 17 °C 28 km/h (41 km/h) 0 mm0 mm
04:00 17 °C 24 km/h (41 km/h) 0 mm0 mm
03:54 17 °C 25 km/h (45 km/h) 0 mm0 mm
03:48 17.1 °C 26 km/h (45 km/h) 0 mm0 mm
03:42 17.1 °C 23 km/h (40 km/h) 0 mm0 mm
03:36 17.2 °C 22 km/h (45 km/h) 0 mm0 mm
03:30 17.2 °C 25 km/h (45 km/h) 0 mm0 mm
03:24 17.2 °C 25 km/h (39 km/h) 0 mm0 mm
03:18 17.2 °C 23 km/h (37 km/h) 0 mm0 mm
03:12 17.3 °C 24 km/h (40 km/h) 0 mm0 mm
03:06 17.3 °C 24 km/h (40 km/h) 0 mm0 mm
03:00 17.4 °C 25 km/h (40 km/h) 0 mm0 mm
02:54 17.3 °C 26 km/h (41 km/h) 0 mm0 mm
02:48 17.3 °C 27 km/h (41 km/h) 0 mm0 mm
02:42 17.4 °C 30 km/h (43 km/h) 0 mm0 mm
02:36 17.4 °C 26 km/h (43 km/h) 0 mm0 mm
02:30 17.4 °C 24 km/h (41 km/h) 0 mm0 mm
02:24 17.4 °C 26 km/h (42 km/h) 0 mm0 mm
02:18 17.4 °C 24 km/h (42 km/h) 0 mm0 mm
02:12 17.4 °C 22 km/h (37 km/h) 0 mm0 mm
02:06 17.5 °C 23 km/h (38 km/h) 0 mm0 mm
02:00 17.5 °C 24 km/h (41 km/h) 0 mm0 mm
01:54 17.4 °C 23 km/h (35 km/h) 0 mm0 mm
01:48 17.5 °C 23 km/h (35 km/h) 0 mm0 mm
01:42 17.5 °C 21 km/h (36 km/h) 0 mm0 mm
01:36 17.5 °C 18 km/h (36 km/h) 0 mm0 mm
01:30 17.6 °C 19 km/h (37 km/h) 0 mm0 mm
01:24 17.6 °C 23 km/h (40 km/h) 0 mm0 mm
01:18 17.5 °C 26 km/h (40 km/h) 0 mm0 mm
01:12 17.5 °C 24 km/h (39 km/h) 0 mm0 mm
01:06 17.5 °C 26 km/h (42 km/h) 0 mm0 mm
01:00 17.5 °C 28 km/h (42 km/h) 0 mm0 mm
00:54 17.6 °C 26 km/h (46 km/h) 0 mm0 mm
00:48 17.7 °C 27 km/h (46 km/h) 0 mm0 mm
00:42 17.7 °C 26 km/h (41 km/h) 0 mm0 mm
00:36 17.7 °C 27 km/h (45 km/h) 0 mm0 mm
00:30 17.7 °C 27 km/h (44 km/h) 0 mm0 mm
00:24 17.7 °C 29 km/h (46 km/h) 0 mm0 mm
00:18 17.7 °C 30 km/h (47 km/h) 0 mm0 mm
00:12 17.7 °C 26 km/h (47 km/h) 0 mm0 mm
00:06 17.7 °C 24 km/h (42 km/h) 0 mm0 mm
00:00 17.7 °C 24 km/h (42 km/h) 0 mm0 mm

Données via Météo-France

Relevés météo à Fecamp

Cette page rassemble les observations de la station de Fecamp : température, humidité, vent, précipitations et pression atmosphérique. Les graphiques facilitent le suivi de la journée, tandis que le tableau donne accès aux mesures horaires et infra-horaires disponibles.

Pour replacer ces mesures dans leur contexte, consultez la climatologie de Fecamp. Retrouvez aussi la carte des observations météo en temps réel.